Home > Weather > Stephenville > Past weeks

Flag for Canada Past Weather in Stephenville, Newfoundland and Labrador, Canada — Yesterday and Last 2 Weeks

Now
68 °F

Broken clouds.


Feels Like: 68 °F
Forecast: 59 / 67 °F
Wind: 21 mph from West

Location: Stephenville

Current Time: Aug 24, 2016 at 3:48:35 PM

Latest Report: Aug 24, 2016 at 2:30 PM


Visibility: 15 mi

Pressure: 29.99 "Hg

Humidity: 83%

Dew Point: 63 °F

Location of StephenvilleLocation

Past Weather in Stephenville — Graph

°F

Stephenville Temperature Yesterday

Maximum temperature yesterday: 70 °F (at 2:30 AM)
Minimum temperature yesterday: 61 °F (at 4:30 PM)
Average temperature yesterday: 65 °F

High & Low Weather Summary for the Past Weeks

 TemperatureHumidityPressure
High79 °F (Aug 22, 2:30 PM)100% (Aug 10, 3:30 AM)30.14 "Hg (Aug 10, 3:30 AM)
Low48 °F (Aug 14, 5:30 AM)50% (Aug 12, 3:30 PM)29.66 "Hg (Aug 23, 5:30 AM)
Average63 °F82%29.94 "Hg
* Reported Aug 9 2:30 PM — Aug 24 2:30 PM, Stephenville, Weather by CustomWeather, © 2016

Note: Actual official high and low records may vary slightly from our data, if they occured in-between our weather recording intervals... More about our weather records

Advertising

Stephenville Weather History for the Previous 24 Hours

Scroll right to see more
 ConditionsComfort  
Time TempWeatherWind HumidityBarometerVisibility
2:30 PM
Wed, Aug 24
68 °FBroken clouds.21 mph83%29.99 "Hg15 mi
1:30 PM68 °FMild.21 mph83%30.01 "Hg15 mi
12:30 PM68 °FPartly sunny.16 mph83%29.99 "Hg15 mi
11:30 AM68 °FBroken clouds.18 mph83%29.99 "Hg15 mi
10:30 AM66 °FSprinkles. Partly sunny.18 mph88%29.99 "Hg15 mi
9:30 AM66 °FPartly sunny.16 mph88%29.98 "Hg15 mi
8:30 AM66 °FPartly sunny.18 mph83%29.98 "Hg15 mi
7:30 AM64 °FPartly sunny.20 mph88%29.97 "Hg15 mi
6:30 AM64 °FPassing clouds.10 mph88%29.97 "Hg15 mi
5:30 AM61 °FPassing clouds.6 mph88%29.97 "Hg15 mi
4:30 AM59 °FPassing clouds.2 mph88%29.97 "Hg15 mi
3:30 AM64 °FPassing clouds.12 mph88%29.98 "Hg15 mi
2:30 AM63 °FClear.15 mph88%29.97 "Hg15 mi
1:30 AM63 °FClear.9 mph83%29.98 "Hg15 mi
12:30 AM61 °FClear.7 mph83%29.96 "Hg15 mi
11:30 PM
Tue, Aug 23
61 °FClear.12 mph83%29.94 "Hg15 mi
10:30 PM63 °FClear.15 mph88%29.93 "Hg15 mi
9:30 PM63 °FPassing clouds.13 mph83%29.90 "Hg15 mi
8:30 PM64 °FScattered clouds.17 mph83%29.88 "Hg12 mi
7:30 PM64 °FPartly sunny.20 mph78%29.86 "Hg12 mi
6:30 PM64 °FPartly sunny.16 mph73%29.84 "Hg15 mi
5:30 PM63 °FBroken clouds.12 mph83%29.82 "Hg15 mi
4:30 PM61 °FMore clouds than sun.9 mph94%29.80 "Hg12 mi
3:30 PM63 °FOvercast.22 mph94%29.76 "Hg6 mi
Weather by CustomWeather, © 2016

See weather overviewHow to use our weather pages